This is the latest recevied weather packets stored in our database for station/object K9ABJ. If no packets are shown the sender has not sent any weather packets the latest 10 day(s).
| Time | Temp. | Humidity | Pressure | Rain* | Wind** | Luminosity | Snow |
|---|---|---|---|---|---|---|---|
| 1788041134 | 26.11° C | 63% | 1019.7 hPa | 0 mm | - | 99 W/m² | - |
| 1788040829 | 26.67° C | 61% | 1019.6 hPa | 0 mm | - | 111 W/m² | - |
| 1788040522 | 26.11° C | 61% | 1019.6 hPa | 0 mm | - | 125 W/m² | - |
| 1788040219 | 26.67° C | 59% | 1019.6 hPa | 0 mm | - | 137 W/m² | - |
| 1788039917 | 26.67° C | 59% | 1019.6 hPa | 0 mm | - | 137 W/m² | - |
| 1788039617 | 26.67° C | 59% | 1019.7 hPa | 0 mm | - | 132 W/m² | - |
| 1788039313 | 26.67° C | 57% | 1019.8 hPa | 0 mm | - | 126 W/m² | - |
| 1788039008 | 26.67° C | 59% | 1019.5 hPa | 0 mm | - | 130 W/m² | - |
| 1788038703 | 26.11° C | 58% | 1019.5 hPa | 0 mm | - | 141 W/m² | - |
| 1788038403 | 26.67° C | 58% | 1019.7 hPa | 0 mm | - | 144 W/m² | - |
| 1788038098 | 26.67° C | 57% | 1019.6 hPa | 0 mm | - | 150 W/m² | - |
| 1788037797 | 27.22° C | 55% | 1019.6 hPa | 0 mm | - | 160 W/m² | - |
| 1788037497 | 27.78° C | 58% | 1019.7 hPa | 0 mm | - | 171 W/m² | - |
| 1788037192 | 28.33° C | 56% | 1019.7 hPa | 0 mm | - | 184 W/m² | - |
| 1788036892 | 26.67° C | 58% | 1019.7 hPa | 0 mm | - | 217 W/m² | - |
| 1788036589 | 27.22° C | 57% | 1019.8 hPa | 0 mm | - | 279 W/m² | - |
| 1788036284 | 27.22° C | 56% | 1020 hPa | 0 mm | - | 340 W/m² | - |
| 1788035979 | 27.22° C | 55% | 1020 hPa | 0 mm | - | 219 W/m² | - |
| 1788035679 | 27.22° C | 54% | 1020.1 hPa | 0 mm | - | 188 W/m² | - |
| 1788035375 | 27.22° C | 56% | 1020.2 hPa | 0 mm | - | 193 W/m² | - |
| 1788035070 | 26.67° C | 54% | 1020.3 hPa | 0 mm | - | 225 W/m² | - |
| 1788034766 | 27.22° C | 55% | 1020.4 hPa | 0 mm | - | 225 W/m² | - |
| 1788034462 | 26.67° C | 54% | 1020.4 hPa | 0 mm | - | 221 W/m² | - |
| 1788034158 | 27.22° C | 55% | 1020.2 hPa | 0 mm | - | 232 W/m² | - |
| 1788033857 | 26.67° C | 54% | 1020.5 hPa | 0 mm | - | 231 W/m² | - |
* Rain latest hour (hover to see other rain measurements)
** Current wind speed in m/s (hover to see current wind gust speed)